CZ-6A DEB, 60668

Orbit data source: Space-Track

CZ-6A DEB, 60668 is space debris in LEO originally from a launch on Tue, 06 Aug 2024 UTC launched from the Taiyaun Space Center, China (TSC). Debris objects in space refer to the collection of defunct objects orbiting the Earth. Examples of debris include non-operational satellites, rocket bodies, and fragments generated from explosions, collisions, or faulty payload assembly.

Loading next visibility...
Identifier
60668, 2024-140BV
Orbit
LEO
Country
Flag of CNCN / PRC
Related business
Manufacturer
SAST
Mission
Spacecraft
Bus & Motor
Unknown
Mass
Unknown
Launch date (UTC)
2024-08-06 (2 years ago)
Launch vehicle
Unknown
Launch site
Taiyaun Space Center, China (TSC)
Object type
Payload
Rocket body
Debris
Shape & HBR
Unknown shape, 0.4 m
Radar Cross Section
Medium (>0.1 m² and <1 m²)

Expand to show TLE details & history
Last TLE update: 15 hours ago

TLE from 15 hours ago
0 CZ-6A DEB
1 60668U 24140BV  26171.32962178  .00003224  00000-0  89312-3 0  9999
2 60668  88.9842 270.2078 0076365 216.0086 143.5960 14.44711005 98038
Epoch: 2026-06-20T07:54Z
TLE epoch observation values (Epoch: 2026-06-20T07:54:39.321Z)
Latitude
-0.0001°
Longitude
-117.00184°
Altitude
789.987 km
Speed
7.436 km/s
True Right ascension
18h 00m 49s
True Declination
0° 00' 00"
Sunlit
Object was in full shadow at epoch
Visualization orbit readout
Latitude
Unknown
Longitude
Unknown
Altitude
Unknown
Speed
Unknown
Apparent Right ascension
Unknown
Apparent Declination
Unknown
Sunlit
N/A
Visualization observer readout
Local Sidereal Time
10:19:02
Azimuth
Unknown
Elevation
Unknown
Doppler factor
Unknown
Orbital elements
Apogee altitude
794.248 km
Perigee altitude
685.534 km
Semi-major axis
7,118.028 km
Eccentricity
0.00764
Inclination
88.9842°
RAAN
270.2078°
Arg. of periapsis
216.0086°
True anomaly
144.11137°
Mean anomaly
143.596°
Eccentric anomaly
143.85408°
Mean motion
3.61413 °/min
Orbital period
99.61 mins
BSTAR
0.00089312
Loading maneuver chart data...
Computing Atmospheric mass density...
Loading historical data...
Loading historical data...
Loading historical data...
Loading historical data...
Loading historical data...
Loading historical data...
Loading historical data...

Documentation

Showing up to 5 results
|